• Em Portugal
  • Lista de países
  • Para 7 dias
  • Temperatura da água
  • Mapas de satélite
  • Mapa do tempo
  • Widgets de tempo
  • user-avatar
    Iniciar Sessão

    Previsão horária em Biskira

    Hoje, 24 Abril, Terça-feira

    Tempo Temperatura Precipitação Vento Pressão Humidade
    00:00 +28°C° 0 mm 3 m/s 752 mmHg 29%
    01:00 +27°C° 0 mm 4 m/s 752 mmHg 33%
    02:00 +26°C° 0 mm 4 m/s 752 mmHg 37%
    03:00 +25°C° 0 mm 5 m/s 752 mmHg 41%
    04:00 +25°C° 0 mm 4 m/s 753 mmHg 42%
    05:00 +25°C° 0 mm 4 m/s 753 mmHg 44%
    06:00 +25°C° 0 mm 4 m/s 753 mmHg 43%
    07:00 +26°C° 0 mm 5 m/s 753 mmHg 38%
    08:00 +28°C° 0 mm 5 m/s 753 mmHg 33%
    09:00 +29°C° 0 mm 6 m/s 754 mmHg 27%
    10:00 +32°C° 0 mm 6 m/s 753 mmHg 24%
    11:00 +33°C° 0 mm 7 m/s 753 mmHg 21%
    12:00 +34°C° 0 mm 7 m/s 753 mmHg 18%
    13:00 +35°C° 0 mm 7 m/s 752 mmHg 17%
    14:00 +35°C° 0 mm 7 m/s 752 mmHg 16%
    15:00 +36°C° 0 mm 7 m/s 751 mmHg 15%
    16:00 +35°C° 0 mm 6 m/s 751 mmHg 16%
    17:00 +34°C° 0 mm 5 m/s 751 mmHg 17%
    18:00 +34°C° 0 mm 5 m/s 751 mmHg 18%
    19:00 +33°C° 0 mm 5 m/s 751 mmHg 18%
    20:00 +32°C° 0 mm 6 m/s 751 mmHg 19%
    21:00 +30°C° 0 mm 6 m/s 751 mmHg 20%
    22:00 +30°C° 0 mm 6 m/s 751 mmHg 22%
    23:00 +29°C° 0 mm 7 m/s 751 mmHg 23%

    Amanhã, 25 Abril, Quarta-feira

    Tempo Temperatura Precipitação Vento Pressão Humidade
    00:00 +28°C° 0 mm 7 m/s 750 mmHg 25%
    01:00 +28°C° 0,1 mm 7 m/s 750 mmHg 28%
    02:00 +27°C° 0,1 mm 7 m/s 750 mmHg 30%
    03:00 +26°C° 0,1 mm 6 m/s 750 mmHg 32%
    04:00 +26°C° 0,1 mm 7 m/s 750 mmHg 32%
    05:00 +26°C° 0,1 mm 7 m/s 750 mmHg 33%
    06:00 +26°C° 0,1 mm 7 m/s 750 mmHg 33%
    07:00 +27°C° 0,1 mm 8 m/s 750 mmHg 30%
    08:00 +29°C° 0,1 mm 8 m/s 750 mmHg 28%
    09:00 +31°C° 0,1 mm 8 m/s 750 mmHg 25%
    10:00 +32°C° 0,2 mm 7 m/s 750 mmHg 24%
    11:00 +33°C° 0,2 mm 7 m/s 750 mmHg 24%
    12:00 +34°C° 0,2 mm 6 m/s 749 mmHg 23%
    13:00 +34°C° 0,1 mm 6 m/s 749 mmHg 23%
    14:00 +35°C° 0,1 mm 6 m/s 748 mmHg 22%
    15:00 +35°C° 0,1 mm 6 m/s 748 mmHg 22%
    16:00 +34°C° 0,1 mm 6 m/s 747 mmHg 26%
    17:00 +33°C° 0,1 mm 7 m/s 747 mmHg 29%
    18:00 +30°C° 0,1 mm 7 m/s 746 mmHg 33%
    19:00 +30°C° 0,1 mm 7 m/s 746 mmHg 33%
    20:00 +30°C° 0,1 mm 7 m/s 746 mmHg 33%
    21:00 +29°C° 0,1 mm 7 m/s 746 mmHg 33%
    22:00 +28°C° 0 mm 7 m/s 746 mmHg 35%
    23:00 +28°C° 0 mm 7 m/s 745 mmHg 38%

    Depois de amanhã, 26 Abril, Quinta-feira

    Tempo Temperatura Precipitação Vento Pressão Humidade
    00:00 +27°C° 0 mm 6 m/s 745 mmHg 40%
    01:00 +26°C° 0 mm 6 m/s 745 mmHg 41%
    02:00 +26°C° 0 mm 6 m/s 745 mmHg 43%
    03:00 +24°C° 0 mm 6 m/s 744 mmHg 44%
    04:00 +24°C° 0 mm 6 m/s 744 mmHg 46%
    05:00 +23°C° 0 mm 5 m/s 744 mmHg 47%
    06:00 +23°C° 0 mm 5 m/s 745 mmHg 49%
    07:00 +25°C° 0 mm 5 m/s 745 mmHg 44%
    08:00 +27°C° 0 mm 4 m/s 745 mmHg 39%
    09:00 +28°C° 0 mm 4 m/s 745 mmHg 34%
    10:00 +29°C° 0 mm 4 m/s 745 mmHg 32%
    11:00 +30°C° 0 mm 5 m/s 744 mmHg 30%
    12:00 +32°C° 0 mm 5 m/s 744 mmHg 28%
    13:00 +32°C° 0 mm 6 m/s 744 mmHg 28%
    14:00 +32°C° 0 mm 7 m/s 744 mmHg 29%
    15:00 +32°C° 0 mm 7 m/s 743 mmHg 29%
    16:00 +30°C° 0,1 mm 7 m/s 744 mmHg 33%
    17:00 +30°C° 0,1 mm 7 m/s 744 mmHg 36%
    18:00 +29°C° 0,1 mm 7 m/s 744 mmHg 39%
    19:00 +28°C° 0,1 mm 7 m/s 745 mmHg 43%
    20:00 +27°C° 0,1 mm 6 m/s 745 mmHg 46%
    21:00 +26°C° 0,1 mm 6 m/s 746 mmHg 50%
    22:00 +24°C° 0,1 mm 6 m/s 746 mmHg 52%
    23:00 +25°C° 0,1 mm 5 m/s 746 mmHg 55%

    27 Abril, Sexta-feira

    Tempo Temperatura Precipitação Vento Pressão Humidade
    00:00 +23°C° 0,1 mm 5 m/s 746 mmHg 57%
    01:00 +23°C° 0,1 mm 5 m/s 745 mmHg 58%
    02:00 +22°C° 0,1 mm 6 m/s 745 mmHg 59%
    03:00 +22°C° 0,1 mm 6 m/s 744 mmHg 59%
    04:00 +22°C° 0 mm 6 m/s 745 mmHg 59%
    05:00 +22°C° 0 mm 6 m/s 745 mmHg 58%
    06:00 +22°C° 0 mm 6 m/s 745 mmHg 57%
    07:00 +23°C° 0,1 mm 7 m/s 745 mmHg 53%
    08:00 +24°C° 0,1 mm 7 m/s 746 mmHg 48%
    09:00 +26°C° 0,1 mm 7 m/s 746 mmHg 44%
    10:00 +27°C° 0,1 mm 7 m/s 746 mmHg 42%
    11:00 +27°C° 0,1 mm 7 m/s 746 mmHg 40%
    12:00 +28°C° 0,1 mm 7 m/s 746 mmHg 38%
    13:00 +28°C° 0 mm 7 m/s 746 mmHg 38%
    14:00 +28°C° 0 mm 8 m/s 746 mmHg 38%
    15:00 +28°C° 0 mm 8 m/s 746 mmHg 38%
    16:00 +27°C° 0 mm 8 m/s 746 mmHg 40%
    17:00 +26°C° 0 mm 7 m/s 747 mmHg 42%
    18:00 +24°C° 0 mm 7 m/s 747 mmHg 44%
    19:00 +23°C° 0 mm 7 m/s 748 mmHg 46%
    20:00 +23°C° 0 mm 6 m/s 749 mmHg 48%
    21:00 +22°C° 0 mm 6 m/s 750 mmHg 49%
    22:00 +22°C° 0 mm 6 m/s 750 mmHg 50%
    23:00 +21°C° 0 mm 5 m/s 750 mmHg 50%

    28 Abril, Sábado

    Tempo Temperatura Precipitação Vento Pressão Humidade
    00:00 +21°C° 0 mm 5 m/s 750 mmHg 51%
    01:00 +20°C° 0 mm 5 m/s 750 mmHg 52%
    02:00 +20°C° 0 mm 4 m/s 749 mmHg 53%
    03:00 +20°C° 0 mm 4 m/s 749 mmHg 53%
    04:00 +20°C° 0 mm 4 m/s 750 mmHg 53%
    05:00 +20°C° 0 mm 4 m/s 750 mmHg 52%
    06:00 +20°C° 0 mm 4 m/s 750 mmHg 52%
    07:00 +21°C° 0 mm 3 m/s 750 mmHg 48%
    08:00 +23°C° 0 mm 2 m/s 750 mmHg 43%
    09:00 +25°C° 0 mm 2 m/s 751 mmHg 39%
    10:00 +26°C° 0 mm 2 m/s 750 mmHg 36%
    11:00 +27°C° 0 mm 2 m/s 750 mmHg 33%
    12:00 +28°C° 0 mm 2 m/s 750 mmHg 31%
    13:00 +28°C° 0 mm 2 m/s 750 mmHg 29%
    14:00 +29°C° 0 mm 2 m/s 749 mmHg 28%
    15:00 +29°C° 0 mm 2 m/s 749 mmHg 26%
    16:00 +29°C° 0 mm 2 m/s 749 mmHg 27%
    17:00 +29°C° 0 mm 2 m/s 749 mmHg 27%
    18:00 +29°C° 0 mm 2 m/s 749 mmHg 27%
    19:00 +28°C° 0 mm 2 m/s 749 mmHg 29%
    20:00 +28°C° 0 mm 1 m/s 750 mmHg 30%
    21:00 +27°C° 0 mm 1 m/s 750 mmHg 32%
    22:00 +26°C° 0 mm 1 m/s 750 mmHg 34%
    23:00 +26°C° 0 mm 1 m/s 750 mmHg 35%

    29 Abril, Domingo

    Tempo Temperatura Precipitação Vento Pressão Humidade
    00:00 +25°C° 0 mm 1 m/s 750 mmHg 37%
    01:00 +25°C° 0 mm 1 m/s 749 mmHg 38%
    02:00 +24°C° 0 mm 1 m/s 749 mmHg 39%
    03:00 +24°C° 0 mm 1 m/s 749 mmHg 41%
    04:00 +24°C° 0 mm 1 m/s 749 mmHg 40%
    05:00 +24°C° 0 mm 1 m/s 750 mmHg 39%
    06:00 +25°C° 0 mm 1 m/s 750 mmHg 39%
    07:00 +26°C° 0 mm 2 m/s 751 mmHg 37%
    08:00 +27°C° 0 mm 3 m/s 751 mmHg 35%
    09:00 +28°C° 0 mm 4 m/s 752 mmHg 33%
    10:00 +28°C° 0,1 mm 4 m/s 752 mmHg 34%
    11:00 +27°C° 0,1 mm 4 m/s 752 mmHg 36%
    12:00 +27°C° 0,1 mm 5 m/s 751 mmHg 37%
    13:00 +28°C° 0 mm 4 m/s 751 mmHg 34%
    14:00 +29°C° 0 mm 3 m/s 750 mmHg 32%
    15:00 +29°C° 0 mm 2 m/s 750 mmHg 29%
    16:00 +29°C° 0 mm 2 m/s 750 mmHg 30%
    17:00 +29°C° 0 mm 3 m/s 750 mmHg 31%
    18:00 +28°C° 0 mm 3 m/s 750 mmHg 31%
    19:00 +28°C° 0 mm 3 m/s 751 mmHg 34%
    20:00 +27°C° 0 mm 3 m/s 751 mmHg 36%
    21:00 +26°C° 0 mm 3 m/s 752 mmHg 39%
    22:00 +26°C° 0 mm 2 m/s 751 mmHg 39%
    23:00 +26°C° 0 mm 2 m/s 751 mmHg 39%
    Mostrar mais